| time (UTC) | temp F | wind direction | speed MPH | gust MPH | rain 1hr in | rain 24hr in | rain mn in | humidity % | barometer mb |
| 20260504022203 | 43 | 219 | 0.0 | 0.0 | 0.00 | 0.00 | 0.00 | 80 | 1012.5 |
| 20260504021704 | 43 | 219 | 0.0 | 0.0 | 0.00 | 0.00 | 0.00 | 80 | 1012.5 |
| 20260504021204 | 44 | 219 | 0.0 | 0.0 | 0.00 | 0.00 | 0.00 | 79 | 1012.5 |
| 20260504020705 | 44 | 219 | 0.0 | 0.0 | 0.00 | 0.00 | 0.00 | 77 | 1012.4 |
| 20260504015203 | 45 | 219 | 0.0 | 0.0 | 0.00 | 0.00 | 0.00 | 74 | 1012.5 |
| 20260504014704 | 46 | 219 | 0.0 | 0.0 | 0.00 | 0.00 | 0.00 | 72 | 1012.6 |
| 20260504014203 | 46 | 219 | 0.0 | 0.0 | 0.00 | 0.00 | 0.00 | 72 | 1012.5 |
| 20260504013703 | 47 | 219 | 0.0 | 0.0 | 0.00 | 0.00 | 0.00 | 70 | 1012.5 |
| 20260504013204 | 47 | 219 | 0.0 | 0.0 | 0.00 | 0.00 | 0.00 | 70 | 1012.4 |
| 20260504012204 | 48 | 219 | 0.0 | 0.0 | 0.00 | 0.00 | 0.00 | 67 | 1012.3 |
| 20260504011704 | 49 | 219 | 0.0 | 0.0 | 0.00 | 0.00 | 0.00 | 64 | 1012.3 |
| 20260504011204 | 50 | 219 | 0.0 | 0.0 | 0.00 | 0.00 | 0.00 | 63 | 1012.4 |
| 20260504010704 | 50 | 219 | 0.0 | 0.0 | 0.00 | 0.00 | 0.00 | 60 | 1012.4 |
| 20260504005704 | 51 | 219 | 0.0 | 0.0 | 0.00 | 0.00 | 0.00 | 58 | 1012.4 |
| 20260504005203 | 51 | 219 | 0.0 | 0.0 | 0.00 | 0.00 | 0.00 | 57 | 1012.4 |
| 20260504004703 | 51 | 219 | 0.0 | 0.0 | 0.00 | 0.00 | 0.00 | 56 | 1012.4 |
| 20260504004204 | 52 | 219 | 0.0 | 0.0 | 0.00 | 0.00 | 0.00 | 55 | 1012.3 |
| 20260504003204 | 53 | 219 | 0.0 | 0.0 | 0.00 | 0.00 | 0.00 | 53 | 1012.3 |
| 20260504002704 | 53 | 219 | 0.0 | 0.0 | 0.00 | 0.00 | 0.00 | 52 | 1012.3 |
| 20260504001203 | 54 | 218 | 0.0 | 0.0 | 0.00 | 0.00 | 0.00 | 51 | 1012.4 |
| 20260504000704 | 54 | 218 | 0.0 | 0.0 | 0.00 | 0.00 | 0.00 | 49 | 1012.4 |
| 20260504000204 | 55 | 228 | 0.0 | 0.0 | 0.00 | 0.00 | 0.00 | 50 | 1012.5 |
| 20260503235703 | 55 | 228 | 0.0 | 0.0 | 0.00 | 0.00 | 0.00 | 48 | 1012.5 |
| 20260503234703 | 56 | 191 | 0.0 | 0.0 | 0.00 | 0.00 | 0.00 | 47 | 1012.5 |
| 20260503233704 | 56 | 197 | 0.0 | 0.0 | 0.00 | 0.00 | 0.00 | 47 | 1012.5 |
| 20260503232704 | 56 | 222 | 0.0 | 0.0 | 0.00 | 0.00 | 0.00 | 47 | 1012.5 |
| 20260503232205 | 57 | 222 | 0.0 | 0.0 | 0.00 | 0.00 | 0.00 | 46 | 1012.5 |
| 20260503231704 | 57 | 184 | 0.0 | 0.0 | 0.00 | 0.00 | 0.00 | 46 | 1012.4 |
| 20260503231203 | 57 | 188 | 0.0 | 0.0 | 0.00 | 0.00 | 0.00 | 45 | 1012.5 |
| 20260503230204 | 57 | 221 | 0.0 | 0.0 | 0.00 | 0.00 | 0.00 | 46 | 1012.6 |
| 20260503225204 | 57 | 219 | 0.0 | 0.0 | 0.00 | 0.00 | 0.00 | 44 | 1012.6 |
| 20260503224703 | 58 | 205 | 0.0 | 0.0 | 0.00 | 0.00 | 0.00 | 44 | 1012.6 |
| 20260503224203 | 58 | 217 | 0.0 | 0.0 | 0.00 | 0.00 | 0.00 | 42 | 1012.6 |
| 20260503223704 | 58 | 170 | 0.0 | 1.0 | 0.00 | 0.00 | 0.00 | 41 | 1012.7 |
| 20260503223204 | 59 | 209 | 0.0 | 3.0 | 0.00 | 0.00 | 0.00 | 41 | 1012.7 |
| 20260503222704 | 59 | 223 | 0.0 | 1.0 | 0.00 | 0.00 | 0.00 | 43 | 1012.7 |
| 20260503221203 | 58 | 212 | 0.0 | 1.0 | 0.00 | 0.00 | 0.00 | 41 | 1012.8 |
| 20260503220703 | 58 | 182 | 0.0 | 0.0 | 0.00 | 0.00 | 0.00 | 44 | 1012.8 |
| 20260503220203 | 58 | 240 | 0.0 | 0.0 | 0.00 | 0.00 | 0.00 | 41 | 1012.8 |
| 20260503215204 | 58 | 184 | 0.0 | 0.0 | 0.00 | 0.00 | 0.00 | 43 | 1012.8 |
| 20260503214704 | 59 | 234 | 0.0 | 1.0 | 0.00 | 0.00 | 0.00 | 40 | 1012.8 |
| 20260503214204 | 59 | 219 | 0.0 | 2.0 | 0.00 | 0.00 | 0.00 | 41 | 1012.7 |
| 20260503213704 | 59 | 216 | 0.0 | 0.0 | 0.00 | 0.00 | 0.00 | 39 | 1012.7 |
| 20260503213203 | 60 | 242 | 0.0 | 0.0 | 0.00 | 0.00 | 0.00 | 39 | 1012.6 |
| 20260503212704 | 60 | 175 | 0.0 | 6.0 | 0.00 | 0.00 | 0.00 | 40 | 1012.5 |
| 20260503212204 | 60 | 232 | 1.0 | 7.0 | 0.00 | 0.00 | 0.00 | 38 | 1012.5 |
| 20260503211704 | 61 | 163 | 1.0 | 9.0 | 0.00 | 0.00 | 0.00 | 39 | 1012.4 |
| 20260503211204 | 61 | 224 | 0.0 | 0.0 | 0.00 | 0.00 | 0.00 | 40 | 1012.5 |
| 20260503210203 | 61 | 238 | 0.0 | 5.0 | 0.00 | 0.00 | 0.00 | 41 | 1012.6 |
| 20260503205703 | 60 | 159 | 0.0 | 2.0 | 0.00 | 0.00 | 0.00 | 41 | 1012.6 |
| 20260503204704 | 60 | 235 | 0.0 | 1.0 | 0.00 | 0.00 | 0.00 | 39 | 1012.8 |
| 20260503204204 | 61 | 210 | 0.0 | 7.0 | 0.00 | 0.00 | 0.00 | 38 | 1012.7 |
| 20260503203703 | 61 | 196 | 0.0 | 3.0 | 0.00 | 0.00 | 0.00 | 38 | 1012.7 |
| 20260503203204 | 60 | 223 | 0.0 | 3.0 | 0.00 | 0.00 | 0.00 | 37 | 1012.9 |
| 20260503202704 | 60 | 195 | 0.0 | 2.0 | 0.00 | 0.00 | 0.00 | 39 | 1013.0 |
| 20260503202204 | 59 | 199 | 0.0 | 1.0 | 0.00 | 0.00 | 0.00 | 43 | 1013.1 |
| 20260503201203 | 59 | 199 | 0.0 | 1.0 | 0.00 | 0.00 | 0.00 | 42 | 1013.3 |
| 20260503200703 | 59 | 235 | 0.0 | 0.0 | 0.00 | 0.00 | 0.00 | 40 | 1013.4 |
| 20260503200204 | 60 | 210 | 0.0 | 12.0 | 0.00 | 0.00 | 0.00 | 38 | 1013.5 |
| 20260503195703 | 60 | 166 | 1.0 | 5.0 | 0.00 | 0.00 | 0.00 | 38 | 1013.5 |
| 20260503195203 | 60 | 219 | 0.0 | 0.0 | 0.00 | 0.00 | 0.00 | 40 | 1013.6 |
| 20260503194705 | 60 | 259 | 0.0 | 1.0 | 0.00 | 0.00 | 0.00 | 40 | 1013.7 |
| 20260503193703 | 61 | 199 | 0.0 | 1.0 | 0.00 | 0.00 | 0.00 | 37 | 1013.8 |
| 20260503191703 | 61 | 188 | 0.0 | 0.0 | 0.00 | 0.00 | 0.00 | 40 | 1014.0 |
| 20260503191203 | 61 | 183 | 1.0 | 7.0 | 0.00 | 0.00 | 0.00 | 37 | 1014.2 |
| 20260503190703 | 62 | 190 | 0.0 | 2.0 | 0.00 | 0.00 | 0.00 | 38 | 1014.3 |
| 20260503190203 | 61 | 200 | 1.0 | 8.0 | 0.00 | 0.00 | 0.00 | 39 | 1014.4 |
| 20260503184703 | 60 | 242 | 0.0 | 3.0 | 0.00 | 0.00 | 0.00 | 43 | 1014.6 |
| 20260503184204 | 60 | 232 | 0.0 | 5.0 | 0.00 | 0.00 | 0.00 | 39 | 1014.6 |
| 20260503183704 | 60 | 196 | 0.0 | 2.0 | 0.00 | 0.00 | 0.00 | 42 | 1014.8 |
| 20260503183204 | 61 | 172 | 0.0 | 2.0 | 0.00 | 0.00 | 0.00 | 39 | 1014.8 |
| 20260503182204 | 61 | 234 | 1.0 | 5.0 | 0.00 | 0.00 | 0.00 | 39 | 1014.8 |
| 20260503181704 | 61 | 203 | 0.0 | 2.0 | 0.00 | 0.00 | 0.00 | 44 | 1014.8 |
| 20260503175703 | 60 | 202 | 0.0 | 3.0 | 0.00 | 0.00 | 0.00 | 42 | 1015.1 |
| 20260503175204 | 60 | 94 | 0.0 | 6.0 | 0.00 | 0.00 | 0.00 | 43 | 1015.1 |
| 20260503174704 | 59 | 174 | 0.0 | 1.0 | 0.00 | 0.00 | 0.00 | 40 | 1015.2 |
| 20260503174204 | 60 | 185 | 0.0 | 2.0 | 0.00 | 0.00 | 0.00 | 43 | 1015.2 |
| 20260503173704 | 60 | 170 | 0.0 | 5.0 | 0.00 | 0.00 | 0.00 | 41 | 1015.4 |
| 20260503172703 | 59 | 138 | 0.0 | 0.0 | 0.00 | 0.00 | 0.00 | 45 | 1015.4 |
| 20260503171704 | 59 | 168 | 0.0 | 5.0 | 0.00 | 0.00 | 0.00 | 44 | 1015.7 |
| 20260503171205 | 58 | 121 | 0.0 | 1.0 | 0.00 | 0.00 | 0.00 | 45 | 1015.6 |
| 20260503170704 | 58 | 189 | 1.0 | 7.0 | 0.00 | 0.00 | 0.00 | 41 | 1015.6 |
| 20260503170204 | 58 | 183 | 1.0 | 5.0 | 0.00 | 0.00 | 0.00 | 43 | 1015.7 |
| 20260503160204 | 56 | 171 | 0.0 | 2.0 | 0.00 | 0.00 | 0.00 | 43 | 1016.5 |
| 20260503150704 | 53 | 80 | 0.0 | 0.0 | 0.00 | 0.00 | 0.00 | 46 | 1016.7 |
| 20260503150203 | 52 | 159 | 0.0 | 0.0 | 0.00 | 0.01 | 0.00 | 43 | 1016.7 |
| 20260503140204 | 48 | 152 | 0.0 | 0.0 | 0.00 | 0.01 | 0.00 | 58 | 1017.2 |
| 20260503131204 | 44 | 163 | 0.0 | 0.0 | 0.00 | 0.01 | 0.00 | 70 | 1017.4 |
| 20260503130704 | 44 | 137 | 0.0 | 0.0 | 0.00 | 0.01 | 0.00 | 71 | 1017.4 |
| 20260503120204 | 40 | 173 | 0.0 | 0.0 | 0.00 | 0.01 | 0.00 | 94 | 1017.1 |
| 20260503110704 | 31 | 173 | 0.0 | 0.0 | 0.00 | 0.01 | 0.00 | 98 | 1016.6 |
| 20260503110204 | 31 | 173 | 0.0 | 0.0 | 0.00 | 0.01 | 0.00 | 98 | 1016.7 |
| 20260503100204 | 29 | 174 | 0.0 | 0.0 | 0.00 | 0.02 | 0.00 | 96 | 1016.2 |
| 20260503090204 | 29 | 174 | 0.0 | 0.0 | 0.00 | 0.02 | 0.00 | 96 | 1016.1 |
| 20260503081203 | 31 | 173 | 0.0 | 0.0 | 0.00 | 0.02 | 0.00 | 95 | 1016.1 |
| 20260503080704 | 31 | 173 | 0.0 | 0.0 | 0.00 | 0.02 | 0.00 | 95 | 1016.0 |
| 20260503080203 | 31 | 174 | 0.0 | 0.0 | 0.00 | 0.02 | 0.00 | 95 | 1016.1 |
| 20260503072703 | 33 | 173 | 0.0 | 0.0 | 0.00 | 0.02 | 0.00 | 94 | 1016.0 |
| 20260503072204 | 33 | 173 | 0.0 | 0.0 | 0.00 | 0.02 | 0.00 | 94 | 1015.9 |
| 20260503071204 | 33 | 173 | 0.0 | 0.0 | 0.00 | 0.02 | 0.00 | 94 | 1015.9 |
| 20260503070703 | 34 | 174 | 0.0 | 0.0 | 0.00 | 0.02 | 0.00 | 94 | 1015.9 |
| 20260503054703 | 34 | 173 | 0.0 | 0.0 | 0.00 | 0.02 | 0.00 | 95 | 1016.2 |
| 20260503054203 | 34 | 174 | 0.0 | 0.0 | 0.00 | 0.02 | 0.00 | 95 | 1016.1 |
| 20260503053703 | 34 | 174 | 0.0 | 0.0 | 0.00 | 0.02 | 0.00 | 95 | 1016.1 |
| 20260503053203 | 34 | 174 | 0.0 | 0.0 | 0.00 | 0.02 | 0.00 | 95 | 1016.2 |
| 20260503052703 | 34 | 174 | 0.0 | 0.0 | 0.00 | 0.02 | 0.00 | 95 | 1016.2 |
| 20260503052204 | 34 | 173 | 0.0 | 0.0 | 0.00 | 0.02 | 0.00 | 95 | 1016.2 |
| 20260503051704 | 34 | 174 | 0.0 | 0.0 | 0.00 | 0.02 | 0.00 | 95 | 1016.2 |
| 20260503051203 | 34 | 174 | 0.0 | 0.0 | 0.00 | 0.02 | 0.00 | 95 | 1016.3 |
| 20260503050703 | 34 | 173 | 0.0 | 0.0 | 0.00 | 0.02 | 0.00 | 95 | 1016.3 |
| 20260503050203 | 34 | 173 | 0.0 | 0.0 | 0.00 | 0.02 | 0.00 | 95 | 1016.3 |
| 20260503045703 | 33 | 173 | 0.0 | 0.0 | 0.00 | 0.02 | 0.00 | 95 | 1016.3 |
| 20260503045203 | 33 | 174 | 0.0 | 0.0 | 0.00 | 0.02 | 0.00 | 95 | 1016.4 |
| 20260503044704 | 33 | 173 | 0.0 | 0.0 | 0.00 | 0.02 | 0.00 | 95 | 1016.3 |
| 20260503044204 | 33 | 174 | 0.0 | 0.0 | 0.00 | 0.02 | 0.00 | 95 | 1016.3 |
| 20260503043704 | 33 | 173 | 0.0 | 0.0 | 0.00 | 0.02 | 0.00 | 95 | 1016.4 |
| 20260503043204 | 34 | 174 | 0.0 | 0.0 | 0.00 | 0.02 | 0.00 | 94 | 1016.4 |
| 20260503042703 | 34 | 174 | 0.0 | 0.0 | 0.00 | 0.02 | 0.00 | 95 | 1016.4 |
| 20260503042203 | 34 | 173 | 0.0 | 0.0 | 0.00 | 0.02 | 0.00 | 94 | 1016.4 |
| 20260503041703 | 34 | 174 | 0.0 | 0.0 | 0.00 | 0.02 | 0.00 | 94 | 1016.3 |
| 20260503040703 | 33 | 174 | 0.0 | 0.0 | 0.00 | 0.02 | 0.00 | 94 | 1016.5 |
| 20260503040203 | 33 | 174 | 0.0 | 0.0 | 0.00 | 0.02 | 0.00 | 93 | 1016.4 |
| 20260503035703 | 33 | 174 | 0.0 | 0.0 | 0.00 | 0.02 | 0.02 | 93 | 1016.5 |
| 20260503034703 | 34 | 173 | 0.0 | 0.0 | 0.00 | 0.02 | 0.02 | 92 | 1016.5 |
| 20260503033704 | 34 | 173 | 0.0 | 0.0 | 0.00 | 0.02 | 0.02 | 92 | 1016.5 |
| 20260503032704 | 34 | 173 | 0.0 | 0.0 | 0.00 | 0.02 | 0.02 | 91 | 1016.5 |
| 20260503032204 | 34 | 173 | 0.0 | 0.0 | 0.00 | 0.02 | 0.02 | 91 | 1016.5 |
| 20260503031703 | 35 | 173 | 0.0 | 0.0 | 0.00 | 0.02 | 0.02 | 90 | 1016.5 |
| 20260503031203 | 35 | 174 | 0.0 | 0.0 | 0.00 | 0.02 | 0.02 | 90 | 1016.5 |
| 20260503030704 | 35 | 174 | 0.0 | 0.0 | 0.00 | 0.02 | 0.02 | 90 | 1016.5 |
| 20260503030204 | 36 | 174 | 0.0 | 0.0 | 0.00 | 0.02 | 0.02 | 89 | 1016.5 |
| 20260503025703 | 36 | 173 | 0.0 | 0.0 | 0.00 | 0.02 | 0.02 | 89 | 1016.6 |
| 20260503025204 | 36 | 173 | 0.0 | 0.0 | 0.00 | 0.02 | 0.02 | 88 | 1016.6 |
| 20260503024704 | 36 | 174 | 0.0 | 0.0 | 0.00 | 0.02 | 0.02 | 88 | 1016.7 |
| 20260503024204 | 36 | 173 | 0.0 | 0.0 | 0.00 | 0.02 | 0.02 | 87 | 1016.6 |
| 20260503022704 | 37 | 173 | 0.0 | 0.0 | 0.00 | 0.02 | 0.02 | 88 | 1016.8 |